{"data":{"norad_id":57195,"intl_designator":"2023-091AF","name":"AVION KALUGA 650","alt_names":[],"object_type":"PAYLOAD","status":"ACTIVE","operator":null,"country":"CIS","launch_date":"2023-06-27","launch_site_code":"VOSTO","launch_vehicle":null,"mission":null,"orbit_class":"UNKNOWN","rcs_meters":null,"size_class":null,"mass_kg":null,"dimensions":null,"purposes":[],"wikipedia_slug":null,"has_3d_model":false,"image_url":null,"decayed_at":null,"tle_current":{"epoch":"2026-09-21T21:12:24.698016Z","epoch_age_seconds":85723,"freshness":"FRESH","line1":"1 57195U 23091AF  26264.88361919  .00003236  00000+0  14803-3 0  9999","line2":"2 57195  97.4991 324.0716 0011383 128.0599 232.1665 15.21198239178722","mean_motion":15.21198239,"eccentricity":0.0011383,"inclination_deg":97.4991,"raan_deg":324.0716,"arg_perigee_deg":128.0599,"mean_anomaly_deg":232.1665,"bstar":0.00014803,"rev_number":17872,"period_min":94.662218446073,"perigee_km":494.39324334387,"apogee_km":510.0570758364,"semimajor_km":6880.3621595901,"source":"CELESTRAK","updated_at":"2026-09-22T09:00:26.079986Z"}}}